BV3BA-13 Weather Reports


time (UTC)temp
F
wind
direction
speed
knots
gust
knots
rain 1hr
in
rain 24hr
in
rain mn
in
humidity
%
barometer
mb
20260505101704 70 120 2.6 6.1 0.08 0.75 0.65 97 1010.2
20260505100704 70 80 1.7 4.3 0.08 0.75 0.63 97 1010.1
20260505095703 70 60 2.6 4.3 0.12 0.75 0.63 97 1010.3
20260505094704 70 50 1.7 4.3 0.12 0.73 0.61 97 1010.5
20260505093703 70 60 0.9 4.3 0.14 0.73 0.61 98 1010.2
20260505092703 70 0 0.0 4.3 0.14 0.73 0.61 97 1010.2
20260505091703 70 120 0.9 4.3 0.10 0.69 0.57 96 1010.1
20260505090704 70 110 0.9 4.3 0.08 0.67 0.55 96 1010.0
20260505085703 70 110 1.7 4.3 0.04 0.63 0.51 95 1010.0
20260505084703 70 40 1.7 4.3 0.02 0.61 0.49 94 1009.8
20260505083704 70 40 1.7 4.3 0.02 0.59 0.47 94 1009.8
20260505082704 70 40 1.7 4.3 0.04 0.59 0.47 95 1009.8
20260505081703 70 50 1.7 4.3 0.06 0.59 0.47 94 1009.9
20260505080703 70 70 1.7 4.3 0.06 0.59 0.47 95 1009.8
20260505075704 70 60 2.6 4.3 0.06 0.59 0.47 94 1009.8
20260505074704 70 60 0.9 4.3 0.06 0.59 0.47 95 1009.9
20260505073703 70 80 1.7 4.3 0.04 0.57 0.45 93 1009.9
20260505072703 70 50 1.7 4.3 0.02 0.55 0.43 93 1010.0
20260505071703 70 60 1.7 4.3 0.00 0.53 0.41 93 1009.9
20260505070704 70 90 0.9 7.0 0.00 0.53 0.41 93 1010.1
20260505065704 70 90 2.6 7.0 0.00 0.53 0.41 91 1010.1
20260505064704 70 80 1.7 7.0 0.00 0.53 0.41 91 1010.2
20260505063704 70 80 1.7 7.0 0.00 0.53 0.41 92 1010.4
20260505062703 70 90 1.7 7.0 0.00 0.53 0.41 92 1010.4
20260505061704 70 100 1.7 7.0 0.00 0.53 0.41 92 1010.6
20260505060704 70 90 1.7 6.1 0.00 0.53 0.41 93 1010.7
20260505055703 70 120 2.6 6.1 0.00 0.53 0.41 92 1010.8
20260505054704 70 110 1.7 6.1 0.00 0.53 0.41 92 1010.8
20260505053703 70 110 2.6 6.1 0.00 0.53 0.41 92 1011.0
20260505052704 70 120 2.6 6.1 0.00 0.53 0.41 92 1011.1
20260505051703 70 130 1.7 6.1 0.00 0.53 0.41 93 1011.1
20260505050703 70 140 2.6 3.5 0.00 0.53 0.41 93 1011.2
20260505041703 70 90 1.7 3.5 0.00 0.53 0.41 94 1011.5
20260505040706 70 80 0.9 7.0 0.00 0.53 0.41 93 1011.7
20260505035704 70 160 0.9 7.0 0.00 0.53 0.41 92 1011.7
20260505034703 70 160 0.9 7.0 0.00 0.53 0.41 92 1011.8
20260505033703 70 180 0.9 7.0 0.00 0.53 0.41 92 1011.9
20260505032704 69 120 0.9 7.0 0.00 0.53 0.41 93 1012.0
20260505031704 69 110 0.9 7.0 0.02 0.53 0.41 93 1012.0
20260505030703 69 160 0.9 7.0 0.02 0.53 0.41 93 1012.1
20260505025703 69 40 1.7 7.0 0.02 0.53 0.41 94 1012.0
20260505024704 69 90 2.6 7.0 0.02 0.53 0.41 94 1011.9
20260505023704 69 100 3.5 7.0 0.02 0.53 0.41 92 1011.9
20260505022704 68 100 1.7 7.0 0.02 0.53 0.41 93 1011.8
20260505021703 68 100 1.7 7.0 0.02 0.53 0.41 93 1012.0
20260505020704 68 100 3.5 7.0 0.00 0.51 0.39 93 1012.1
20260505015704 68 100 2.6 7.0 0.00 0.51 0.39 95 1011.9
20260505014703 67 70 3.5 7.0 0.02 0.51 0.39 95 1011.9
20260505012703 67 60 3.5 7.0 0.06 0.51 0.39 96 1012.1
20260505011703 67 60 3.5 7.0 0.06 0.51 0.39 96 1012.2
20260505010704 67 60 2.6 6.1 0.08 0.51 0.39 96 1012.1
20260505005704 67 90 1.7 6.1 0.08 0.51 0.39 96 1012.1
20260505004703 67 140 0.9 6.1 0.06 0.49 0.37 96 1012.0
20260505003708 67 120 1.7 6.1 0.08 0.37 0.26 96 1011.9
20260505002704 66 120 2.6 6.1 0.06 0.45 0.33 96 1011.9
20260505001705 66 100 0.9 6.1 0.08 0.45 0.33 96 1011.9
20260505000704 66 100 1.7 6.1 0.06 0.43 0.31 95 1011.8
20260504235704 66 60 1.7 6.1 0.08 0.43 0.31 96 1011.8
20260504234703 66 70 1.7 6.1 0.10 0.43 0.31 96 1011.7
20260504233703 66 100 2.6 6.1 0.10 0.41 0.30 96 1011.5
20260504232704 65 90 0.9 6.1 0.08 0.39 0.28 96 1011.5
20260504231704 65 50 2.6 6.1 0.06 0.37 0.26 96 1011.5
20260504230704 65 80 1.7 5.2 0.08 0.37 0.26 95 1011.4
20260504225704 66 80 1.7 5.2 0.06 0.35 0.24 96 1011.5
20260504224703 66 110 0.9 5.2 0.10 0.33 0.22 96 1011.4
20260504223704 65 130 1.7 5.2 0.10 0.31 0.20 95 1011.3
20260504222705 65 120 2.6 5.2 0.12 0.31 0.20 95 1011.2
20260504221704 65 120 1.7 5.2 0.14 0.31 0.20 95 1011.2
20260504220704 65 70 2.6 4.3 0.12 0.30 0.18 95 1011.1
20260504215703 65 50 1.7 4.3 0.12 0.30 0.18 95 1011.1
20260504214704 65 90 0.9 4.3 0.06 0.26 0.12 95 1010.9
20260504213703 65 90 0.9 4.3 0.04 0.24 0.10 94 1010.8
20260504212703 65 90 0.9 4.3 0.02 0.22 0.08 94 1010.7
20260504211704 65 90 1.7 4.3 0.02 0.20 0.06 93 1010.6
20260504210703 65 120 0.9 6.1 0.04 0.20 0.06 92 1010.5
20260504205703 65 110 0.9 6.1 0.04 0.20 0.06 93 1010.5
20260504204703 65 130 0.9 6.1 0.04 0.20 0.06 92 1010.5
20260504203704 65 120 0.9 6.1 0.06 0.20 0.06 93 1010.4
20260504202703 65 120 0.9 6.1 0.06 0.20 0.06 91 1010.4
20260504201703 65 130 1.7 6.1 0.04 0.18 0.04 90 1010.2
20260504200704 66 110 1.7 10.4 0.02 0.16 0.02 89 1010.1
20260504195703 66 130 1.7 10.4 0.02 0.16 0.02 88 1010.1
20260504194703 66 120 1.7 10.4 0.02 0.16 0.02 86 1010.0
20260504193704 66 100 3.5 10.4 0.00 0.14 0.00 86 1009.8
20260504192704 66 130 1.7 10.4 0.00 0.14 0.00 86 1009.8
20260504191703 66 70 1.7 10.4 0.00 0.14 0.00 86 1009.9
20260504190703 66 110 2.6 10.4 0.00 0.14 0.00 86 1009.9
20260504185704 65 110 3.5 10.4 0.00 0.14 0.00 86 1009.9
20260504184703 65 100 1.7 10.4 0.00 0.14 0.00 86 1010.0
20260504183703 65 120 2.6 10.4 0.00 0.14 0.00 85 1010.1
20260504182704 65 110 1.7 10.4 0.00 0.14 0.00 85 1010.2
20260504181703 65 130 3.5 10.4 0.00 0.14 0.00 85 1010.2
20260504180703 66 110 3.5 10.4 0.00 0.14 0.00 84 1010.3
20260504175703 65 130 2.6 10.4 0.00 0.14 0.00 83 1010.4
20260504174704 65 110 3.5 10.4 0.00 0.14 0.00 84 1010.4
20260504173706 65 120 3.5 10.4 0.00 0.14 0.00 83 1010.6
20260504172703 65 130 3.5 10.4 0.00 0.14 0.00 83 1010.8
20260504171705 65 130 3.5 10.4 0.00 0.14 0.00 84 1010.9
20260504170703 65 100 3.5 12.2 0.00 0.14 0.00 83 1011.0
20260504150704 64 120 1.7 12.2 0.00 0.14 0.14 83 1012.1
20260504140703 64 60 3.5 14.8 0.00 0.14 0.14 83 1012.6
20260504130703 63 70 5.2 12.2 0.02 0.14 0.14 84 1012.8
20260504110703 63 50 3.5 19.1 0.08 0.10 0.10 82 1012.9